Terminal Aerodrome Forecast
Issued by NWS

Home | Current Version | Previous Version | Graphics & Text | Print | Product List | Glossary On
Versions: 1 2 3 4 5 6 7 8 9 10 11 12 13 14 15 16 17 18 19 20 21
000
FTUS43 KGRB 011248 AAA
TAFCWA
TAF AMD
KCWA 011248Z 0113/0212 VRB03KT 4SM BR SCT005 SCT015
      TEMPO 0113/0114 2SM BR
     FM011400 22006KT P6SM FEW007 BKN015
     FM011800 21010G15KT P6SM SCT200
     FM020400 VRB03KT 4SM BR SCT200
      TEMPO 0208/0212 1SM BR BKN005=

USA.gov is the U.S. government's official web portal to all federal, state and local government web resources and services.